Time,TemperatureF,DewpointF,PressureIn,WindDirection,WindDirectionDegrees,WindSpeedMPH,WindSpeedGustMPH,Humidity,HourlyPrecipIn,Conditions,Clouds,dailyrainin,SoftwareType,DateUTC
2013-08-03 00:02:00,66.0,-99.9,-100.00,WSW,245,1.0,3.0,-999,0.00,,,-99.99,,2013-08-03 04:02:00,
2013-08-03 00:12:00,66.0,-99.9,-100.00,WSW,245,1.0,4.0,-999,0.00,,,-99.99,,2013-08-03 04:12:00,
2013-08-03 00:22:00,66.0,-99.9,-100.00,WSW,255,2.0,4.0,-999,0.00,,,-99.99,,2013-08-03 04:22:00,
2013-08-03 00:33:00,66.0,-99.9,-100.00,WSW,255,2.0,4.0,-999,0.00,,,-99.99,,2013-08-03 04:33:00,
2013-08-03 00:43:00,66.0,-99.9,-100.00,WSW,255,3.0,6.0,-999,0.00,,,-99.99,,2013-08-03 04:43:00,
2013-08-03 01:02:00,66.0,-99.9,-100.00,WSW,240,2.0,5.0,-999,0.00,,,-99.99,,2013-08-03 05:02:00,
2013-08-03 01:12:00,66.0,-99.9,-100.00,SSW,210,1.0,4.0,-999,0.00,,,-99.99,,2013-08-03 05:12:00,
2013-08-03 01:32:00,66.0,-99.9,-100.00,SSW,210,1.0,3.0,-999,0.00,,,-99.99,,2013-08-03 05:32:00,
2013-08-03 01:43:00,66.0,-99.9,-100.00,WSW,240,0.0,3.0,-999,0.00,,,-99.99,,2013-08-03 05:43:00,
2013-08-03 01:53:00,66.0,-99.9,-100.00,West,260,1.0,3.0,-999,0.00,,,-99.99,,2013-08-03 05:53:00,
2013-08-03 02:02:00,66.0,-99.9,-100.00,West,275,1.0,3.0,-999,0.00,,,-99.99,,2013-08-03 06:02:00,
2013-08-03 02:33:00,66.0,-99.9,-100.00,West,270,1.0,3.0,-999,0.00,,,-99.99,,2013-08-03 06:33:00,
2013-08-03 02:52:00,66.0,-99.9,-100.00,West,270,1.0,2.0,-999,0.00,,,-99.99,,2013-08-03 06:52:00,
2013-08-03 03:12:00,66.0,-99.9,-100.00,West,275,1.0,3.0,-999,0.00,,,-99.99,,2013-08-03 07:12:00,
2013-08-03 03:22:00,66.0,-99.9,-100.00,West,275,1.0,3.0,-999,0.00,,,-99.99,,2013-08-03 07:22:00,
2013-08-03 03:43:00,66.0,-99.9,-100.00,West,265,0.0,1.0,-999,0.00,,,-99.99,,2013-08-03 07:43:00,
2013-08-03 03:53:00,65.0,-99.9,-100.00,SSW,195,1.0,2.0,-999,0.00,,,-99.99,,2013-08-03 07:53:00,
2013-08-03 04:02:00,65.0,-99.9,-100.00,South,180,1.0,2.0,-999,0.00,,,-99.99,,2013-08-03 08:02:00,
2013-08-03 04:12:00,65.0,-99.9,-100.00,South,175,0.0,0.0,-999,0.00,,,-99.99,,2013-08-03 08:12:00,
2013-08-03 04:32:00,66.0,-99.9,-100.00,NW,320,2.0,6.0,-999,0.00,,,-99.99,,2013-08-03 08:32:00,
2013-08-03 05:02:00,65.0,-99.9,-100.00,West,265,2.0,4.0,-999,0.00,,,-99.99,,2013-08-03 09:02:00,
2013-08-03 05:12:00,65.0,-99.9,-100.00,West,265,2.0,4.0,-999,0.00,,,-99.99,,2013-08-03 09:12:00,
2013-08-03 05:22:00,65.0,-99.9,-100.00,WNW,295,2.0,5.0,-999,0.00,,,-99.99,,2013-08-03 09:22:00,
2013-08-03 05:32:00,65.0,-99.9,-100.00,WNW,295,3.0,5.0,-999,0.00,,,-99.99,,2013-08-03 09:32:00,
2013-08-03 05:43:00,65.0,-99.9,-100.00,WNW,295,4.0,6.0,-999,0.00,,,-99.99,,2013-08-03 09:43:00,
2013-08-03 05:53:00,65.0,-99.9,-100.00,WNW,290,4.0,6.0,-999,0.00,,,-99.99,,2013-08-03 09:53:00,
2013-08-03 06:02:00,65.0,-99.9,-100.00,WNW,295,4.0,6.0,-999,0.00,,,-99.99,,2013-08-03 10:02:00,
2013-08-03 06:12:00,65.0,-99.9,-100.00,WNW,295,4.0,6.0,-999,0.00,,,-99.99,,2013-08-03 10:12:00,
2013-08-03 06:22:00,65.0,-99.9,-100.00,WNW,295,4.0,6.0,-999,0.00,,,-99.99,,2013-08-03 10:22:00,
2013-08-03 06:33:00,65.0,-99.9,-100.00,WNW,300,4.0,6.0,-999,0.00,,,-99.99,,2013-08-03 10:33:00,
2013-08-03 06:43:00,65.0,-99.9,-100.00,NW,315,4.0,6.0,-999,0.00,,,-99.99,,2013-08-03 10:43:00,
2013-08-03 07:02:00,64.0,-99.9,-100.00,NW,325,3.0,5.0,-999,0.00,,,-99.99,,2013-08-03 11:02:00,
2013-08-03 07:32:00,64.0,-99.9,-100.00,NNW,330,3.0,5.0,-999,0.00,,,-99.99,,2013-08-03 11:32:00,
2013-08-03 07:43:00,65.0,-99.9,-100.00,NNW,335,4.0,7.0,-999,0.00,,,-99.99,,2013-08-03 11:43:00,
2013-08-03 08:03:00,65.0,-99.9,-100.00,NNW,330,4.0,6.0,-999,0.00,,,-99.99,,2013-08-03 12:03:00,
2013-08-03 08:22:00,66.0,-99.9,-100.00,NNW,340,4.0,7.0,-999,0.00,,,-99.99,,2013-08-03 12:22:00,
2013-08-03 08:33:00,66.0,-99.9,-100.00,NNW,340,4.0,7.0,-999,0.00,,,-99.99,,2013-08-03 12:33:00,
2013-08-03 08:43:00,66.0,-99.9,-100.00,NNW,340,4.0,7.0,-999,0.00,,,-99.99,,2013-08-03 12:43:00,
2013-08-03 09:02:00,66.0,-99.9,-100.00,North,0,5.0,8.0,-999,0.00,,,-99.99,,2013-08-03 13:02:00,
2013-08-03 09:22:00,67.0,-99.9,-100.00,NNW,340,4.0,7.0,-999,0.00,,,-99.99,,2013-08-03 13:22:00,
2013-08-03 09:52:00,69.0,-99.9,-100.00,North,350,4.0,8.0,-999,0.00,,,-99.99,,2013-08-03 13:52:00,
2013-08-03 10:02:00,69.0,-99.9,-100.00,North,350,5.0,7.0,-999,0.00,,,-99.99,,2013-08-03 14:02:00,
2013-08-03 10:33:00,71.0,70.0,-100.00,NNE,15,3.0,6.0,97,0.00,,,-99.99,,2013-08-03 14:33:00,
2013-08-03 10:43:00,70.0,-99.9,-100.00,NNE,25,3.0,5.0,-999,0.00,,,-99.99,,2013-08-03 14:43:00,
2013-08-03 10:52:00,71.0,68.0,-100.00,North,10,1.0,5.0,90,0.00,,,-99.99,,2013-08-03 14:52:00,
2013-08-03 11:02:00,71.0,67.0,-100.00,North,10,3.0,6.0,87,0.00,,,-99.99,,2013-08-03 15:02:00,
2013-08-03 11:12:00,73.0,63.0,-100.00,North,0,4.0,6.0,73,0.00,,,-99.99,,2013-08-03 15:12:00,
2013-08-03 11:23:00,73.0,65.0,-100.00,NE,35,2.0,6.0,75,0.00,,,-99.99,,2013-08-03 15:23:00,
2013-08-03 11:32:00,73.0,62.0,-100.00,North,5,4.0,7.0,68,0.00,,,-99.99,,2013-08-03 15:32:00,
2013-08-03 11:43:00,75.0,62.0,-100.00,NW,320,3.0,5.0,63,0.00,,,-99.99,,2013-08-03 15:43:00,
2013-08-03 12:02:00,74.0,58.0,-100.00,NNW,345,3.0,9.0,55,0.00,,,-99.99,,2013-08-03 16:02:00,
2013-08-03 12:12:00,74.0,59.0,-100.00,NE,55,2.0,6.0,58,0.00,,,-99.99,,2013-08-03 16:12:00,
2013-08-03 12:22:00,74.0,58.0,-100.00,NNW,345,6.0,7.0,56,0.00,,,-99.99,,2013-08-03 16:22:00,
2013-08-03 12:33:00,74.0,56.0,-100.00,NNW,330,3.0,7.0,53,0.00,,,-99.99,,2013-08-03 16:33:00,
2013-08-03 12:43:00,74.0,55.0,-100.00,NNW,345,4.0,6.0,51,0.00,,,-99.99,,2013-08-03 16:43:00,
2013-08-03 12:53:00,75.0,55.0,-100.00,North,0,4.0,9.0,49,0.00,,,-99.99,,2013-08-03 16:53:00,
2013-08-03 13:03:00,76.0,54.0,-100.00,NW,305,4.0,7.0,46,0.00,,,-99.99,,2013-08-03 17:03:00,
2013-08-03 13:12:00,75.0,56.0,-100.00,NNW,345,4.0,10.0,52,0.00,,,-99.99,,2013-08-03 17:12:00,
2013-08-03 13:22:00,75.0,55.0,-100.00,NNW,340,6.0,7.0,48,0.00,,,-99.99,,2013-08-03 17:22:00,
2013-08-03 13:32:00,77.0,55.0,-100.00,North,0,4.0,6.0,46,0.00,,,-99.99,,2013-08-03 17:32:00,
2013-08-03 13:43:00,77.0,55.0,-100.00,North,0,4.0,6.0,46,0.00,,,-99.99,,2013-08-03 17:43:00,
2013-08-03 13:52:00,75.0,55.0,-100.00,NNW,345,7.0,13.0,50,0.00,,,-99.99,,2013-08-03 17:52:00,
2013-08-03 14:02:00,77.0,54.0,-100.00,NW,325,2.0,9.0,45,0.00,,,-99.99,,2013-08-03 18:02:00,
2013-08-03 14:12:00,77.0,53.0,-100.00,NW,325,4.0,7.0,43,0.00,,,-99.99,,2013-08-03 18:12:00,
2013-08-03 14:22:00,75.0,56.0,-100.00,North,0,6.0,9.0,50,0.00,,,-99.99,,2013-08-03 18:22:00,
2013-08-03 14:32:00,77.0,54.0,-100.00,NNW,330,4.0,9.0,45,0.00,,,-99.99,,2013-08-03 18:32:00,
2013-08-03 14:43:00,78.0,56.0,-100.00,NNW,335,6.0,11.0,47,0.00,,,-99.99,,2013-08-03 18:43:00,
2013-08-03 14:52:00,76.0,55.0,-100.00,North,0,3.0,12.0,48,0.00,,,-99.99,,2013-08-03 18:52:00,
2013-08-03 15:03:00,77.0,56.0,-100.00,WNW,300,4.0,8.0,48,0.00,,,-99.99,,2013-08-03 19:03:00,
2013-08-03 15:12:00,77.0,56.0,-100.00,WNW,300,4.0,8.0,48,0.00,,,-99.99,,2013-08-03 19:12:00,
2013-08-03 15:22:00,76.0,55.0,-100.00,NW,325,6.0,10.0,49,0.00,,,-99.99,,2013-08-03 19:22:00,
2013-08-03 15:32:00,77.0,53.0,-100.00,NW,320,5.0,6.0,43,0.00,,,-99.99,,2013-08-03 19:32:00,
2013-08-03 15:42:00,78.0,51.0,-100.00,NW,320,4.0,12.0,38,0.00,,,-99.99,,2013-08-03 19:42:00,
2013-08-03 15:52:00,78.0,51.0,-100.00,NW,320,4.0,12.0,38,0.00,,,-99.99,,2013-08-03 19:52:00,
2013-08-03 16:02:00,78.0,52.0,-100.00,NW,320,6.0,11.0,40,0.00,,,-99.99,,2013-08-03 20:02:00,
2013-08-03 16:12:00,76.0,56.0,-100.00,North,0,0.0,0.0,50,0.00,,,-99.99,,2013-08-03 20:12:00,
2013-08-03 16:22:00,76.0,56.0,-100.00,North,0,0.0,0.0,50,0.00,,,-99.99,,2013-08-03 20:22:00,
2013-08-03 16:32:00,77.0,56.0,-100.00,NNW,335,9.0,14.0,47,0.00,,,-99.99,,2013-08-03 20:32:00,
2013-08-03 16:42:00,76.0,52.0,-100.00,NNW,330,7.0,13.0,42,0.00,,,-99.99,,2013-08-03 20:42:00,
2013-08-03 16:52:00,79.0,55.0,-100.00,NW,320,8.0,12.0,43,0.00,,,-99.99,,2013-08-03 20:52:00,
2013-08-03 17:02:00,79.0,55.0,-100.00,NW,320,8.0,12.0,43,0.00,,,-99.99,,2013-08-03 21:02:00,
2013-08-03 17:12:00,79.0,55.0,-100.00,NW,320,8.0,12.0,43,0.00,,,-99.99,,2013-08-03 21:12:00,
2013-08-03 17:22:00,77.0,53.0,-100.00,North,0,7.0,16.0,43,0.00,,,-99.99,,2013-08-03 21:22:00,
2013-08-03 17:32:00,76.0,55.0,-100.00,North,355,5.0,11.0,47,0.00,,,-99.99,,2013-08-03 21:32:00,
2013-08-03 17:42:00,78.0,55.0,-100.00,NNW,340,9.0,12.0,45,0.00,,,-99.99,,2013-08-03 21:42:00,
2013-08-03 17:52:00,77.0,55.0,-100.00,NNW,345,11.0,16.0,46,0.00,,,-99.99,,2013-08-03 21:52:00,
2013-08-03 18:02:00,76.0,55.0,-100.00,North,350,8.0,13.0,47,0.00,,,-99.99,,2013-08-03 22:02:00,
2013-08-03 18:12:00,76.0,55.0,-100.00,North,0,7.0,16.0,47,0.00,,,-99.99,,2013-08-03 22:12:00,
2013-08-03 18:22:00,76.0,56.0,-100.00,North,0,7.0,12.0,50,0.00,,,-99.99,,2013-08-03 22:22:00,
2013-08-03 18:33:00,75.0,53.0,-100.00,NNW,340,12.0,17.0,45,0.00,,,-99.99,,2013-08-03 22:33:00,
2013-08-03 18:43:00,75.0,55.0,-100.00,NNW,330,7.0,16.0,48,0.00,,,-99.99,,2013-08-03 22:43:00,
2013-08-03 18:52:00,76.0,53.0,-100.00,NNW,340,11.0,14.0,45,0.00,,,-99.99,,2013-08-03 22:52:00,
2013-08-03 19:02:00,75.0,53.0,-100.00,NNW,335,9.0,14.0,46,0.00,,,-99.99,,2013-08-03 23:02:00,
2013-08-03 19:12:00,76.0,53.0,-100.00,North,0,8.0,11.0,44,0.00,,,-99.99,,2013-08-03 23:12:00,
2013-08-03 19:22:00,75.0,53.0,-100.00,NW,315,10.0,13.0,46,0.00,,,-99.99,,2013-08-03 23:22:00,
2013-08-03 19:32:00,75.0,53.0,-100.00,NW,315,10.0,13.0,46,0.00,,,-99.99,,2013-08-03 23:32:00,
2013-08-03 19:43:00,75.0,52.0,-100.00,NW,320,9.0,13.0,45,0.00,,,-99.99,,2013-08-03 23:43:00,
2013-08-03 19:52:00,74.0,52.0,-100.00,NW,325,6.0,12.0,46,0.00,,,-99.99,,2013-08-03 23:52:00,
2013-08-03 20:03:00,74.0,51.0,-100.00,NW,325,7.0,15.0,45,0.00,,,-99.99,,2013-08-04 00:03:00,
2013-08-03 20:12:00,73.0,50.0,-100.00,NW,325,8.0,11.0,44,0.00,,,-99.99,,2013-08-04 00:12:00,
2013-08-03 20:22:00,73.0,50.0,-100.00,NW,325,8.0,11.0,44,0.00,,,-99.99,,2013-08-04 00:22:00,
2013-08-03 20:32:00,72.0,53.0,-100.00,NW,315,6.0,9.0,51,0.00,,,-99.99,,2013-08-04 00:32:00,
2013-08-03 20:42:00,71.0,53.0,-100.00,NW,310,4.0,9.0,52,0.00,,,-99.99,,2013-08-04 00:42:00,
2013-08-03 20:52:00,69.0,53.0,-100.00,NW,315,3.0,6.0,56,0.00,,,-99.99,,2013-08-04 00:52:00,
2013-08-03 21:12:00,67.0,53.0,-100.00,NW,305,4.0,5.0,60,0.00,,,-99.99,,2013-08-04 01:12:00,
2013-08-03 21:22:00,67.0,53.0,-100.00,NW,310,6.0,6.0,62,0.00,,,-99.99,,2013-08-04 01:22:00,
2013-08-03 21:32:00,67.0,53.0,-100.00,NW,320,7.0,10.0,60,0.00,,,-99.99,,2013-08-04 01:32:00,
2013-08-03 21:42:00,67.0,54.0,-100.00,NNW,330,6.0,11.0,63,0.00,,,-99.99,,2013-08-04 01:42:00,
2013-08-03 21:52:00,67.0,54.0,-100.00,NNW,330,6.0,11.0,63,0.00,,,-99.99,,2013-08-04 01:52:00,
2013-08-03 22:03:00,65.0,54.0,-100.00,NW,325,6.0,7.0,67,0.00,,,-99.99,,2013-08-04 02:03:00,
2013-08-03 22:12:00,65.0,55.0,-100.00,NW,325,6.0,7.0,69,0.00,,,-99.99,,2013-08-04 02:12:00,
2013-08-03 22:22:00,64.0,55.0,-100.00,NW,325,6.0,7.0,70,0.00,,,-99.99,,2013-08-04 02:22:00,
2013-08-03 22:32:00,64.0,55.0,-100.00,NNW,330,6.0,7.0,71,0.00,,,-99.99,,2013-08-04 02:32:00,
2013-08-03 22:42:00,63.0,55.0,-100.00,NW,320,4.0,6.0,76,0.00,,,-99.99,,2013-08-04 02:42:00,
2013-08-03 22:52:00,62.0,56.0,-100.00,NW,320,3.0,4.0,78,0.00,,,-99.99,,2013-08-04 02:52:00,
2013-08-03 23:02:00,62.0,56.0,-100.00,NW,310,1.0,4.0,83,0.00,,,-99.99,,2013-08-04 03:02:00,
2013-08-03 23:12:00,61.0,60.0,-100.00,NW,305,2.0,2.0,97,0.00,,,-99.99,,2013-08-04 03:12:00,
2013-08-03 23:22:00,61.0,60.0,-100.00,NW,305,2.0,2.0,97,0.00,,,-99.99,,2013-08-04 03:22:00,
2013-08-03 23:32:00,61.0,60.0,-100.00,NW,305,2.0,2.0,97,0.00,,,-99.99,,2013-08-04 03:32:00,
2013-08-03 23:42:00,60.0,-99.9,-100.00,NW,310,3.0,4.0,-999,0.00,,,-99.99,,2013-08-04 03:42:00,
2013-08-03 23:52:00,60.0,-99.9,-100.00,NW,310,2.0,4.0,-999,0.00,,,-99.99,,2013-08-04 03:52:00,